EUTELSAT 117 WEST B

Last updated on Sat Aug 22 2026 00:02:59 GMT+0000 (Coordinated Universal Time)

1 41589U 16038B 26233.17396516 -.00000014 00000+0 00000+0 0 9993 2 41589 0.0096 218.0431 0000441 24.8995 32.1887 1.00272809 37311
UTC large
Height (km)
Speed (km/s)
/
Latitude / Longitude
Inclination (degrees)
Orbital Period (minutes)
Azimuth
Elevation
Range (km)
Doppler Factor

Next 0 passes for location: London (51.5072 / 0.1276)

No passes found over London.
EUTELSAT 117 WEST B